Belleville, IL

4:07 PM CDT on July 27, 2017 (GMT -0500)
Scott Air Force Base-Midamerica

Weather History for KBLV - January, 2013

Change the Weather History Date:

Saturday, January 26, 2013

  Actual Average Record
Temperature  
Mean Temperature 30 °F -  
Max Temperature 36 °F 39 °F 60 °F (1952)
Min Temperature 24 °F 20 °F 0 °F (1978)
Degree Days  
Heating Degree Days 35    
Moisture  
Dew Point 17 °F    
Average Humidity 58    
Maximum Humidity 76    
Minimum Humidity 40    
Precipitation  
Precipitation 0.00 in - - ()
Sea Level Pressure  
Sea Level Pressure 30.35 in    
Wind  
Wind Speed 6 mph (NE)    
Max Wind Speed 10 mph    
Max Gust Speed -    
Visibility 10 miles    
Events      
Averages and records for this station are not official NWS values.
T = Trace of Precipitation, MM = Missing Value Source: NWS Daily Summary

Daily Weather History Graph

Daily Weather History Graph

Search for Another Location

Airport or City:

Trip Planner

Search our weather history database for the weather conditions in past years. The results will help you decide how hot, cold, wet, or windy it might be!

Date:

Astronomy

Jan. 26, 2013 Rise Set
Actual Time 7:09 AM CST 5:14 PM CST
Civil Twilight 6:41 AM CST 5:43 PM CST
Nautical Twilight 6:09 AM CST 6:15 PM CST
Astronomical Twilight 5:37 AM CST 6:46 PM CST
Moon 5:09 PM CST (1/26) 6:27 AM CST (1/26)
Length of Visible Light 11h 02m
Length of Day
10h 05m
Full, 100% of the Moon is Illuminated
Jan 26
Full
Jan 26
Full
Feb 3
Last Quarter
Feb 10
New
Feb 17
First Quarter

Hourly Weather History & Observations

Time (CST) Temp. Windchill Dew Point Humidity Pressure Visibility Wind Dir Wind Speed Gust Speed Precip Events Conditions
12:55 AM 32.7 °F 26.4 °F 20.1 °F 60% 30.24 in 10.0 mi NW 6.9 mph - N/A   Clear
1:55 AM 29.5 °F 22.5 °F 20.7 °F 70% 30.26 in 10.0 mi NW 6.9 mph - N/A   Clear
2:55 AM 32.2 °F 23.8 °F 21.4 °F 64% 30.27 in 10.0 mi North 10.4 mph - N/A   Clear
3:55 AM 31.1 °F 23.7 °F 22.3 °F 70% 30.28 in 10.0 mi North 8.1 mph - N/A   Clear
4:55 AM 28.8 °F 21.7 °F 21.7 °F 75% 30.28 in 10.0 mi NNE 6.9 mph - N/A   Clear
5:55 AM 27.1 °F 18.9 °F 20.1 °F 75% 30.33 in 10.0 mi North 8.1 mph - N/A   Clear
6:55 AM 25.2 °F 16.5 °F 17.2 °F 72% 30.36 in 10.0 mi NNE 8.1 mph - N/A   Clear
7:55 AM 24.1 °F 19.7 °F 10.8 °F 57% 30.39 in 10.0 mi North 3.5 mph - N/A   Partly Cloudy
8:55 AM 25.9 °F 17.4 °F 11.8 °F 55% 30.40 in 10.0 mi NNE 8.1 mph - N/A   Scattered Clouds
9:55 AM 26.6 °F 20.0 °F 11.3 °F 53% 30.42 in 10.0 mi NE 5.8 mph - N/A   Clear
10:55 AM 29.3 °F 25.6 °F 12.0 °F 49% 30.42 in 10.0 mi Variable 3.5 mph - N/A   Clear
11:55 AM 32.0 °F 27.5 °F 12.6 °F 45% 30.43 in 10.0 mi Variable 4.6 mph - N/A   Clear
12:55 PM 34.5 °F 29.4 °F 12.7 °F 41% 30.39 in 10.0 mi NNE 5.8 mph - N/A   Clear
1:55 PM 36.1 °F - 14.0 °F 40% 30.37 in 10.0 mi Calm Calm - N/A   Clear
2:55 PM 36.0 °F 32.1 °F 14.7 °F 42% 30.35 in 10.0 mi Variable 4.6 mph - N/A   Clear
3:55 PM 36.0 °F 33.3 °F 15.1 °F 43% 30.34 in 10.0 mi East 3.5 mph - N/A   Clear
4:55 PM 34.3 °F 30.2 °F 14.7 °F 45% 30.35 in 10.0 mi East 4.6 mph - N/A   Clear
5:55 PM 31.3 °F 25.6 °F 16.5 °F 54% 30.35 in 10.0 mi ENE 5.8 mph - N/A   Clear
6:55 PM 30.0 °F - 15.8 °F 56% 30.37 in 10.0 mi Calm Calm - N/A   Partly Cloudy
7:55 PM 29.7 °F 26.1 °F 17.4 °F 60% 30.36 in 10.0 mi East 3.5 mph - N/A   Partly Cloudy
8:55 PM 29.1 °F 22.1 °F 17.2 °F 61% 30.36 in 10.0 mi East 6.9 mph - N/A   Clear
9:55 PM 28.4 °F 21.2 °F 18.9 °F 67% 30.36 in 10.0 mi ESE 6.9 mph - N/A   Clear
10:55 PM 27.9 °F 21.5 °F 19.2 °F 70% 30.36 in 10.0 mi ESE 5.8 mph - N/A   Clear
11:55 PM 26.1 °F 19.4 °F 19.4 °F 76% 30.35 in 10.0 mi SE 5.8 mph - N/A   Clear